CW9861 Weather Reports


time (UTC)temp
F
wind
direction
speed
knots
gust
knots
rain 1hr
in
rain 24hr
in
rain mn
in
humidity
%
barometer
mb
20260506060957 41 295 0.0 0.9 0.00 0.00 0.00 69 1008.8
20260506060456 41 295 0.0 0.0 0.00 0.00 0.00 69 1008.8
20260506050956 42 266 0.0 1.7 0.00 0.00 0.00 67 1008.6
20260506050456 43 262 0.0 1.7 0.00 0.00 0.00 66 1008.8
20260506044957 43 313 0.9 3.5 0.00 0.00 0.00 66 1008.4
20260506044457 43 340 0.9 3.5 0.00 0.00 0.00 65 1008.2
20260506043957 43 299 0.9 1.7 0.00 0.00 0.00 66 1008.1
20260506043458 43 302 0.0 0.9 0.00 0.00 0.00 66 1008.2
20260506042957 43 299 0.0 1.7 0.00 0.00 0.00 65 1008.1
20260506042457 43 299 0.0 1.7 0.00 0.00 0.00 66 1008.1
20260506041957 43 297 0.9 2.6 0.00 0.00 0.00 66 1008.3
20260506041457 43 288 0.9 2.6 0.00 0.00 0.00 65 1008.3
20260506040957 43 292 0.0 1.7 0.00 0.00 0.00 65 1008.3
20260506040458 43 266 0.0 2.6 0.00 0.00 0.00 65 1008.3
20260506035958 43 266 0.9 2.6 0.00 0.00 0.00 65 1008.1
20260506035457 43 271 0.0 1.7 0.00 0.00 0.00 65 1008.1
20260506034957 43 271 0.0 1.7 0.00 0.00 0.00 64 1008.1
20260506034458 43 326 0.0 2.6 0.00 0.00 0.00 64 1007.8
20260506033957 43 315 0.0 0.0 0.00 0.00 0.00 64 1007.9
20260506033457 44 315 0.0 0.0 0.00 0.00 0.00 63 1008.0
20260506032957 44 315 0.0 0.9 0.00 0.00 0.00 63 1008.1
20260506032457 44 315 0.0 1.7 0.00 0.00 0.00 63 1008.3
20260506031957 44 317 0.0 1.7 0.00 0.00 0.00 62 1008.2
20260506031457 44 311 0.0 0.9 0.00 0.00 0.00 61 1008.3
20260506030958 44 311 0.0 0.9 0.00 0.00 0.00 61 1008.4
20260506030458 45 311 0.0 1.7 0.00 0.00 0.00 60 1008.1
20260506025957 45 311 0.0 1.7 0.00 0.00 0.00 60 1008.1
20260506025458 45 307 0.0 0.0 0.00 0.00 0.00 60 1007.9
20260506024957 45 307 0.0 0.0 0.00 0.00 0.00 59 1008.0
20260506024457 45 307 0.0 0.0 0.00 0.00 0.00 59 1008.0
20260506023957 46 307 0.0 0.9 0.00 0.00 0.00 58 1007.9
20260506023457 46 307 0.0 0.9 0.00 0.00 0.00 58 1007.8
20260506022957 46 300 0.0 1.7 0.00 0.00 0.00 57 1007.7
20260506022457 46 300 0.0 1.7 0.00 0.00 0.00 57 1007.9
20260506021957 46 300 0.0 2.6 0.00 0.00 0.00 57 1007.7
20260506021458 47 300 0.0 2.6 0.00 0.00 0.00 56 1007.6
20260506020957 47 296 0.0 2.6 0.00 0.00 0.00 56 1007.7
20260506020500 47 266 0.9 2.6 0.00 0.00 0.00 55 1007.6
20260506020000 47 308 0.9 2.6 0.00 0.00 0.00 55 1007.4
20260506015459 47 320 0.9 2.6 0.00 0.00 0.00 55 1007.3
20260506014959 48 271 0.9 2.6 0.00 0.00 0.00 55 1007.3
20260506014458 48 298 0.9 2.6 0.00 0.00 0.00 55 1007.3
20260506013958 48 304 0.0 2.6 0.00 0.00 0.00 54 1007.2
20260506013458 48 319 0.0 2.6 0.00 0.00 0.00 54 1007.2
20260506012958 48 298 1.7 2.6 0.00 0.00 0.00 54 1007.1
20260506012458 48 309 0.9 3.5 0.00 0.00 0.00 54 1007.1
20260506011958 49 324 0.9 3.5 0.00 0.00 0.00 54 1007.1
20260506011457 49 289 1.7 4.3 0.00 0.00 0.00 53 1007.1
20260506011000 49 322 1.7 4.3 0.00 0.00 0.00 53 1007.1
20260506010458 49 299 1.7 3.5 0.00 0.00 0.00 53 1006.9
20260506010001 49 322 0.9 3.5 0.00 0.00 0.00 53 1006.8
20260506005458 49 290 0.9 4.3 0.00 0.00 0.00 52 1006.7
20260506004958 50 251 0.9 4.3 0.00 0.00 0.00 52 1006.7
20260506004458 50 321 0.9 3.5 0.00 0.00 0.00 52 1006.7
20260506004000 50 289 0.9 3.5 0.00 0.00 0.00 52 1006.8
20260506003459 50 257 0.9 3.5 0.00 0.00 0.00 52 1006.7
20260506002959 50 290 1.7 3.5 0.00 0.00 0.00 51 1006.8
20260506002459 50 294 0.9 4.3 0.00 0.00 0.00 51 1006.8
20260506001958 50 318 2.6 3.5 0.00 0.00 0.00 51 1006.8
20260506001458 51 282 1.7 4.3 0.00 0.00 0.00 51 1006.7
20260506000958 51 266 0.9 3.5 0.00 0.00 0.00 52 1006.7
20260506000458 51 271 1.7 3.5 0.00 0.00 0.00 51 1006.6
20260505235958 51 306 1.7 4.3 0.00 0.00 0.00 51 1006.6
20260505235457 51 305 1.7 4.3 0.00 0.00 0.00 51 1006.7
20260505224957 53 305 1.7 5.2 0.00 0.00 0.00 47 1006.5
20260505224457 53 315 1.7 7.8 0.00 0.00 0.00 46 1006.4
20260505223956 52 308 2.6 7.8 0.00 0.00 0.00 46 1006.5
20260505223458 53 313 2.6 8.7 0.00 0.00 0.00 47 1006.6
20260505222958 53 285 2.6 8.7 0.00 0.00 0.00 45 1006.4
20260505222457 53 326 3.5 8.7 0.00 0.00 0.00 46 1006.6
20260505221957 52 307 2.6 8.7 0.00 0.00 0.00 46 1006.4
20260505221457 53 349 4.3 8.7 0.00 0.00 0.00 45 1006.4
20260505220957 52 305 3.5 9.6 0.00 0.00 0.00 45 1006.4
20260505220456 52 311 3.5 10.4 0.00 0.00 0.00 46 1006.4
20260505215957 53 341 3.5 11.3 0.00 0.00 0.00 46 1006.4
20260505215457 53 261 4.3 11.3 0.00 0.00 0.00 44 1006.5
20260505214957 53 289 2.6 9.6 0.00 0.00 0.00 45 1006.6
20260505214457 53 249 2.6 12.2 0.00 0.00 0.00 46 1006.6
20260505213957 53 316 3.5 13.0 0.00 0.00 0.00 44 1006.6
20260505213458 54 328 4.3 10.4 0.00 0.00 0.00 46 1006.6
20260505212957 53 292 4.3 9.6 0.00 0.00 0.00 43 1006.4
20260505212456 54 339 3.5 13.0 0.00 0.00 0.00 44 1006.4
20260505211958 54 271 5.2 13.0 0.00 0.00 0.00 45 1006.5
20260505211457 54 336 3.5 10.4 0.00 0.00 0.00 47 1006.5
20260505210958 54 345 6.1 10.4 0.00 0.00 0.00 45 1006.5
20260505210457 55 321 2.6 9.6 0.00 0.00 0.00 46 1006.6
20260505205958 54 271 4.3 9.6 0.00 0.00 0.00 45 1006.4
20260505205457 54 276 4.3 12.2 0.00 0.00 0.00 44 1006.5
20260505204956 55 311 2.6 13.9 0.00 0.00 0.00 46 1006.6
20260505204457 54 337 6.1 13.9 0.00 0.00 0.00 44 1006.5
20260505203957 55 332 3.5 10.4 0.00 0.00 0.00 46 1006.6
20260505203457 55 305 2.6 8.7 0.00 0.00 0.00 47 1006.6
20260505202957 55 288 3.5 9.6 0.00 0.00 0.00 46 1006.7
20260505202457 55 205 3.5 7.8 0.00 0.00 0.00 47 1006.7
20260505201958 55 238 3.5 7.8 0.00 0.00 0.00 45 1006.8
20260505201458 55 307 2.6 13.0 0.00 0.00 0.00 46 1006.7
20260505200957 55 304 4.3 13.0 0.00 0.00 0.00 46 1006.8
20260505200457 55 302 4.3 10.4 0.00 0.00 0.00 45 1006.6
20260505195957 54 293 4.3 12.2 0.00 0.00 0.00 42 1006.6
20260505195456 55 336 5.2 12.2 0.00 0.00 0.00 42 1006.5
20260505194957 56 305 4.3 8.7 0.00 0.00 0.00 45 1006.5
20260505194457 55 287 3.5 9.6 0.00 0.00 0.00 44 1006.6
20260505190957 56 231 3.5 14.8 0.00 0.00 0.00 41 1006.3
20260505190456 56 234 5.2 14.8 0.00 0.00 0.00 44 1006.2
20260505185957 55 333 7.0 12.2 0.00 0.00 0.00 40 1006.2
20260505185457 55 226 6.1 13.9 0.00 0.00 0.00 42 1006.2
20260505184957 55 229 6.1 13.9 0.00 0.00 0.00 40 1006.0
20260505184457 56 322 4.3 11.3 0.00 0.00 0.00 42 1006.1
20260505183957 56 315 4.3 13.0 0.00 0.00 0.00 41 1005.9
20260505183457 56 249 6.1 13.0 0.00 0.00 0.00 39 1005.8
20260505182957 56 245 6.1 13.0 0.00 0.00 0.00 38 1006.0
20260505182457 57 235 3.5 11.3 0.00 0.00 0.00 42 1006.0
20260505181957 56 307 3.5 13.9 0.00 0.00 0.00 45 1006.1
20260505181457 57 228 4.3 13.9 0.00 0.00 0.00 39 1006.1
20260505180957 58 286 5.2 13.0 0.00 0.00 0.00 39 1006.0
20260505180457 57 238 4.3 13.0 0.00 0.00 0.00 39 1005.8
20260505175957 57 276 6.1 12.2 0.00 0.00 0.00 39 1005.7
20260505175457 57 228 4.3 11.3 0.00 0.00 0.00 39 1005.7
20260505174957 58 320 4.3 11.3 0.00 0.00 0.00 39 1005.5
20260505174456 58 220 2.6 8.7 0.00 0.00 0.00 41 1005.4
20260505173956 58 325 1.7 7.8 0.00 0.00 0.00 44 1005.3
20260505173457 57 230 4.3 9.6 0.00 0.00 0.00 42 1005.3
20260505172956 57 354 3.5 9.6 0.00 0.00 0.00 38 1005.3
20260505172457 57 342 4.3 9.6 0.00 0.00 0.00 36 1005.3
20260505171957 58 330 3.5 8.7 0.00 0.00 0.00 37 1005.3
20260505171456 58 209 3.5 8.7 0.00 0.00 0.00 41 1005.3
20260505170957 58 229 4.3 8.7 0.00 0.00 0.00 35 1005.4
20260505170457 58 188 2.6 10.4 0.00 0.00 0.00 38 1005.3
20260505165458 58 293 4.3 7.8 0.00 0.00 0.00 39 1005.4
20260505164958 57 317 5.2 7.8 0.00 0.00 0.00 37 1005.3
20260505164458 56 291 2.6 9.6 0.00 0.00 0.00 39 1005.2
20260505163958 57 255 4.3 13.0 0.00 0.00 0.00 39 1005.2
20260505163459 57 310 3.5 13.0 0.00 0.00 0.00 41 1005.4
20260505162958 57 271 5.2 11.3 0.00 0.00 0.00 39 1005.4
20260505151959 54 271 2.6 9.6 0.00 0.00 0.00 53 1005.9
20260505151457 53 224 3.5 7.8 0.00 0.00 0.00 54 1006.1
20260505150958 52 297 2.6 7.8 0.00 0.00 0.00 53 1006.1
20260505150458 52 262 2.6 7.8 0.00 0.00 0.00 55 1006.1
20260505140458 50 301 4.3 9.6 0.00 0.00 0.00 61 1005.3
20260505123457 51 311 2.6 6.1 0.00 0.00 0.00 74 1003.7
20260505122958 51 237 2.6 3.5 0.00 0.00 0.00 76 1003.6
20260505122457 50 289 0.0 2.6 0.00 0.00 0.00 77 1003.5
20260505121958 50 332 0.9 3.5 0.00 0.00 0.00 76 1003.4
20260505121458 50 337 0.9 3.5 0.00 0.00 0.00 76 1003.4
20260505120959 50 276 1.7 3.5 0.00 0.00 0.00 77 1003.3
20260505120458 49 293 0.0 2.6 0.00 0.00 0.00 78 1003.3
20260505112458 48 357 0.9 1.7 0.00 0.00 0.00 79 1002.9
20260505111958 48 266 0.0 3.5 0.00 0.00 0.00 79 1002.9
20260505111458 48 325 0.9 2.6 0.00 0.00 0.00 78 1002.7
20260505110958 48 316 0.0 2.6 0.00 0.00 0.00 77 1002.6
20260505110457 48 305 0.9 3.5 0.00 0.00 0.00 77 1002.6
20260505101958 50 271 0.0 4.3 0.00 0.00 0.00 66 1001.7
20260505101458 50 282 1.7 4.3 0.00 0.00 0.00 66 1001.5
20260505100958 50 294 0.9 2.6 0.00 0.00 0.00 65 1001.7
20260505100458 51 323 0.9 2.6 0.00 0.00 0.00 65 1001.5
20260505100000 51 298 0.9 2.6 0.00 0.00 0.00 64 1001.2
20260505095458 51 328 0.9 3.5 0.00 0.00 0.00 64 1001.0
20260505094958 51 324 0.9 3.5 0.00 0.00 0.00 64 1000.9
20260505094457 51 315 0.9 3.5 0.00 0.00 0.00 64 1000.7
20260505093958 51 285 0.9 4.3 0.00 0.00 0.00 64 1001.0
20260505093457 51 311 1.7 4.3 0.00 0.00 0.00 64 1001.0
20260505092959 51 276 1.7 4.3 0.00 0.00 0.00 66 1000.8
20260505092458 52 248 0.9 3.5 0.00 0.00 0.00 67 1000.7
20260505081458 53 238 0.0 4.3 0.00 0.00 0.00 68 999.4
20260505080958 53 266 0.9 4.3 0.00 0.00 0.00 68 999.4
20260505080458 53 292 0.0 1.7 0.00 0.00 0.00 68 999.3
20260505075959 54 253 0.0 2.6 0.00 0.00 0.00 68 999.2
20260505075457 54 276 0.9 4.3 0.00 0.00 0.00 68 999.3
20260505074957 54 266 0.0 3.5 0.00 0.00 0.00 68 999.0
20260505074458 54 295 0.0 4.3 0.00 0.00 0.00 69 999.1
20260505073957 54 307 0.9 4.3 0.00 0.00 0.00 69 999.1
20260505073458 54 252 0.9 4.3 0.00 0.00 0.00 69 998.8
20260505072957 55 290 0.9 3.5 0.00 0.00 0.00 71 998.9
20260505072457 55 248 0.9 4.3 0.00 0.00 0.00 71 999.0
20260505071958 55 222 0.9 7.8 0.00 0.00 0.00 71 999.2
20260505071457 55 285 0.9 7.8 0.00 0.00 0.00 71 999.0
20260505070957 55 250 1.7 4.3 0.00 0.00 0.00 71 999.1
20260505070457 55 276 1.7 4.3 0.00 0.00 0.00 70 998.9
20260505065957 56 239 0.9 5.2 0.00 0.00 0.00 70 999.1
20260505065458 56 222 1.7 5.2 0.00 0.00 0.00 69 998.9
20260505064957 56 276 0.0 1.7 0.00 0.00 0.00 69 998.7
20260505064457 56 304 0.9 2.6 0.00 0.00 0.00 70 998.7
20260505063957 57 271 0.9 2.6 0.00 0.00 0.00 69 998.8